Home > Weather > Sumqayit > Past weeks

Flag for Azerbaijan Weather for the Past 2 Weeks in Sumqayit, Azerbaijan

Now
45 °F

Mostly cloudy.


Feels Like: 37 °F
Forecast: 38 / 43 °F
Wind: 20 mph from North

Location: Baku / Bine Airport

Current Time: Feb 7, 2016 at 3:49:31 AM

Latest Report: Feb 7, 2016 at 3:00 AM


Visibility: N/A

Pressure: 29.92 "Hg

Humidity: 81%

Dew point: 39 °F

Location of SumqayitLocation

Historic Weather in Sumqayit — Graph

°F

Sumqayit Temperature Yesterday

Maximum temperature yesterday: 57 °F (at 12:30 AM)
Minimum temperature yesterday: 39 °F (at 7:00 AM)
Average temperature yesterday: 45 °F

High & Low Weather Summary for the Past Weeks

 TemperatureHumidityPressure
High61 °F (Feb 5, 2:00 PM)100% (Jan 25, 1:30 PM)30.45 "Hg (Jan 25, 1:30 PM)
Low25 °F (Jan 28, 1:30 AM)36% (Feb 5, 1:30 PM)29.74 "Hg (Feb 6, 7:00 AM)
Average41 °F81%30.16 "Hg
* Reported Jan 23 2:00 AM — Feb 7 2:30 AM, Sumqayit, Weather by CustomWeather, © 2016

Note: Actual official high and low records may vary slightly from our data, if they occured in-between our weather recording intervals... More about our weather records

Advertising

Sumqayit Weather History for the Previous 24 Hours

 ConditionsComfort  
Time TempWeatherWind HumidityBarometerVisibility
2:30 AM
Sun, Feb 7
45 °FMostly cloudy.18 mph81%29.92 "HgN/A
2:00 AM45 °FMostly cloudy.16 mph81%29.92 "HgN/A
1:00 AM45 °FPassing clouds.13 mph87%29.92 "HgN/A
12:30 AM45 °FPassing clouds.14 mph87%29.89 "HgN/A
12:00 AM45 °FPassing clouds.18 mph87%29.89 "HgN/A
11:30 PM
Sat, Feb 6
45 °FPassing clouds.20 mph87%29.86 "HgN/A
11:00 PM43 °FPartly cloudy.16 mph93%29.89 "HgN/A
10:30 PM45 °FPassing clouds.16 mph81%29.89 "HgN/A
10:00 PM45 °FMostly cloudy.17 mph87%29.89 "HgN/A
9:30 PM45 °FMostly cloudy.16 mph87%29.89 "HgN/A
9:00 PM45 °FMostly cloudy.18 mph87%29.89 "HgN/A
8:30 PM45 °FMostly cloudy.16 mph81%29.86 "HgN/A
8:00 PM45 °FMostly cloudy.16 mph81%29.86 "HgN/A
7:30 PM45 °FMostly cloudy.18 mph87%29.86 "HgN/A
7:00 PM45 °FMostly cloudy.16 mph81%29.86 "HgN/A
6:30 PM43 °FMostly cloudy.13 mph87%29.83 "HgN/A
6:00 PM43 °FOvercast.15 mph87%29.83 "HgN/A
5:30 PM43 °FOvercast.17 mph87%29.83 "HgN/A
5:00 PM43 °FPartly sunny.18 mph87%29.83 "HgN/A
4:30 PM45 °FPartly sunny.21 mph81%29.83 "HgN/A
4:00 PM45 °FPartly sunny.21 mph81%29.80 "HgN/A
3:30 PM45 °FBroken clouds.21 mph76%29.80 "HgN/A
3:00 PM45 °FMostly cloudy.18 mph81%29.83 "HgN/A
2:30 PM45 °FMostly cloudy.17 mph81%29.83 "HgN/A
2:00 PM45 °FMostly cloudy.17 mph87%29.83 "HgN/A
1:30 PM45 °FMostly cloudy.16 mph87%29.83 "HgN/A
1:00 PM45 °FMostly cloudy.16 mph87%29.83 "HgN/A
12:30 PM45 °FMore clouds than sun.16 mph87%29.83 "HgN/A
12:00 PM46 °FMore clouds than sun.18 mph82%29.83 "HgN/A
11:30 AM45 °FMore clouds than sun.17 mph81%29.83 "HgN/A
11:00 AM41 °FFog.17 mph93%29.83 "Hg2 mi
10:30 AM48 °FPartly sunny.3 mph82%29.77 "Hg5 mi
10:00 AM43 °FFog.6 mph100%29.74 "Hg3 mi
9:30 AM41 °FFog.6 mph93%29.74 "Hg2 mi
9:00 AM39 °FFog.3 mph100%29.77 "Hg1 mi
8:00 AM39 °FFog.6 mph100%29.77 "Hg1 mi
7:30 AM39 °FFog.7 mph100%29.74 "Hg0 mi
7:00 AM39 °FFog.6 mph100%29.74 "Hg0 mi
6:00 AM41 °FFog.7 mph93%29.77 "Hg1 mi
5:30 AM41 °FFog.7 mph93%29.77 "Hg1 mi
4:30 AM41 °FFog.9 mph93%29.77 "Hg2 mi
4:00 AM46 °FClear.8 mph82%29.77 "Hg10 mi
3:30 AM50 °FClear.12 mph71%29.77 "Hg10 mi
3:00 AM50 °FClear.14 mph71%29.77 "Hg10 mi
Weather by CustomWeather, © 2016

See weather overviewHow to use our weather pages